AirNav   Air Wisconsin pilot careers
 
 1360 users online  

8MD5 Flying H Farm Airport
Libertytown, Maryland, USA

GOING TO LIBERTYTOWN?


FAA INFORMATION EFFECTIVE 13 SEPTEMBER 2018

Location

FAA Identifier: 8MD5
Lat/Long: 39-29-54.0000N / 077-13-18.0000W
39-29.900000N / 077-13.300000W
39.4983333 / -77.2216667
(estimated)
Elevation: 610 ft. / 186 m (estimated)
Variation: 10W (1995)
From city: 2 miles NE of LIBERTYTOWN, MD
Time zone: UTC -4 (UTC -5 during Standard Time)
Zip code: 21791

Airport Operations

Airport use: Private use. Permission required prior to landing
Activation date: 07/1999
Control tower: no
ARTCC: WASHINGTON CENTER
FSS: LEESBURG FLIGHT SERVICE STATION
Attendance: UNATNDD
Wind indicator: yes
Segmented circle: yes

Airport Communications

UNICOM: 123.075
WX AWOS-3 at FDK (9 nm SW): 124.875 (301-600-1457)
WX AWOS-3 at DMW (12 nm NE): 121.25 (410-876-1281)
WX AWOS-3PT at GAI (20 nm S): 128.275 (301-977-2971)

Nearby radio navigation aids

VOR radial/distance  VOR name  Freq  Var
FDKr062/(8.8)FREDERICK VOR109.0008W
EMIr279/11.3WESTMINSTER VORTAC117.9008W
MRBr084/29.8MARTINSBURG VORTAC112.1007W
HGRr119/(31.7)HAGERSTOWN VOR109.8007W
BALr318/32.6BALTIMORE VORTAC115.1011W
AMLr027/35.7ARMEL VOR/DME113.5008W
DCAr356/39.3WASHINGTON VOR/DME111.0009W

 
NDB name  Hdg/Dist  Freq  Var  ID
ELLICOTT313/24.237111WFND ..-. -. -..
GEORGETOWN001/34.432309WGTN --. - -.

Airport Services

Runway Information

Runway 18/36

Dimensions: 2000 x 50 ft. / 610 x 15 m
Surface: turf
RUNWAY 18  RUNWAY 36
Traffic pattern: leftright
Obstructions: 30 ft. pline, marked, 363 ft. from runwaynone

Airport Ownership and Management from official FAA records

Ownership: Privately-owned
Owner: FRANCIS E HARRISON
9608 B FOUNTAIN SCHOOL RD
UNION BRIDGE, MD 21791
Phone 301-829-0181
Manager: CHRISTIE HARRISON
9608 C FOUNTAIN SCHOOL RD
UNION BRIDGE, MD 21791
Phone 301-639-0747

Airport Operational Statistics

Aircraft based on the field: 6
Single engine airplanes: 1
Ultralights: 5
    

Instrument Procedures

There are no published instrument procedures at 8MD5.

Some nearby airports with instrument procedures:

KFDK - Frederick Municipal Airport (9 nm SW)
2W2 - Clearview Airpark (10 nm E)
KDMW - Carroll County Regional Airport/Jack B Poage Field (12 nm NE)
W50 - Davis Airport (16 nm S)
KGAI - Montgomery County Airpark (20 nm S)
 
Loc | Ops | Rwys | IFR | FBO | Links
Com | Nav | Svcs | Stats | Notes


 
Area around 8MD5 (Flying H Farm Airport)
 
Road maps at: MapQuest Bing Google
 
Aerial photo
WARNING: Photo may not be current or correct
Aerial photo of 8MD5 (Flying H Farm Airport)
Do you have a better or more recent aerial photo of Flying H Farm Airport that you would like to share? If so, please send us your photo.

 
Sectional chart

 
Airport distance calculator
Flying to Flying H Farm Airport? Find the distance to fly.

From to 8MD5

Sunrise and sunset
Times for 19-Sep-2018
 Local
(UTC-4)
 Zulu
(UTC)
Morning civil twilight06:2810:28
Sunrise06:5510:55
Sunset19:1123:11
Evening civil twilight19:3823:38

Current date and time
Zulu (UTC)  19-Sep-2018 13:57:31
Local (UTC-4)  19-Sep-2018 09:57:31
 
METAR
KFDK 
8nm SW 
191347Z 00000KT 10SM SKC 28/10 A2998
KDMW 
12nm NE 
191345Z AUTO 36005KT 10SM SCT024 23/19 A2997 RMK AO2
KGAI 
20nm S 
191256Z AUTO 32004KT 10SM CLR 22/20 A2996 RMK AO2 SLP168 T02170200
TAF
KBWI 
32nm SE 
191141Z 1912/2018 29005KT P6SM SCT250 FM191500 33010KT P6SM FEW040 FEW250 FM200100 02004KT P6SM FEW250 FM201700 11006KT P6SM SCT040
KIAD 
36nm S 
191141Z 1912/2018 33005KT P6SM SCT250 FM191400 34010KT P6SM FEW040 FEW250 FM192300 02006KT P6SM FEW250 FM201600 11005KT P6SM SCT040
KMRB 
36nm W 
191141Z 1912/2012 VRB03KT 3SM BR FEW250 FM191400 33007KT P6SM SCT040 FM192300 VRB03KT P6SM FEW040 FEW250 FM200800 VRB03KT 3SM BR FEW040
KMTN 
39nm E 
191141Z 1912/2012 30005KT P6SM SCT250 FM191500 33010KT P6SM FEW040 FEW250 FM200100 36004KT P6SM FEW250
KDCA 
40nm S 
191141Z 1912/2018 34007KT P6SM SCT250 FM191400 35010G17KT P6SM FEW040 FEW250 FM200000 02006KT P6SM FEW250 FM201600 11007KT P6SM SCT040
NOTAMs
Click for the latest NOTAMs
NOTAMs are issued by the DoD/FAA and will open in a separate window not controlled by AirNav.

 

 
 

Would you like to see your business listed on this page?

 If your business provides an interesting product or service to pilots, flight crews, aircraft, or users of the Flying H Farm Airport, you should consider listing it here.  To start the listing process, click on the button below
 
Add a business
 

Other Pages about Flying H Farm Airport

Update a link
 
Copyright © AirNav, LLC. All rights reserved. Privacy Policy  Contact